Year,Month,Day,Hour,Minute,Value (Times are PST for temperature in C)
2011,04,22,00,00,5.40
2011,04,22,00,01,5.40
2011,04,22,00,02,5.30
2011,04,22,00,03,5.30
2011,04,22,00,04,5.30
2011,04,22,00,05,5.20
2011,04,22,00,06,5.20
2011,04,22,00,07,5.30
2011,04,22,00,08,5.30
2011,04,22,00,09,5.30
2011,04,22,00,10,5.30
2011,04,22,00,11,5.20
2011,04,22,00,12,5.20
2011,04,22,00,13,5.20
2011,04,22,00,14,5.20
2011,04,22,00,15,5.10
2011,04,22,00,16,5.10
2011,04,22,00,17,5.10
2011,04,22,00,18,5.10
2011,04,22,00,19,5.10
2011,04,22,00,20,5.10
2011,04,22,00,21,5.10
2011,04,22,00,22,5.10
2011,04,22,00,23,5.00
2011,04,22,00,24,5.00
2011,04,22,00,25,5.00
2011,04,22,00,26,5.00
2011,04,22,00,27,5.00
2011,04,22,00,28,5.00
2011,04,22,00,29,5.00
2011,04,22,00,30,4.90
2011,04,22,00,31,4.90
2011,04,22,00,32,4.90
2011,04,22,00,33,4.80
2011,04,22,00,34,4.80
2011,04,22,00,35,4.70
2011,04,22,00,36,4.70
2011,04,22,00,37,4.70
2011,04,22,00,38,4.70
2011,04,22,00,39,4.70
2011,04,22,00,40,4.70
2011,04,22,00,41,4.70
2011,04,22,00,42,4.70
2011,04,22,00,43,4.70
2011,04,22,00,44,4.80
2011,04,22,00,45,4.80
2011,04,22,00,46,4.80
2011,04,22,00,47,4.90
2011,04,22,00,48,5.00
2011,04,22,00,49,5.00
2011,04,22,00,50,5.10
2011,04,22,00,51,5.10
2011,04,22,00,52,5.10
2011,04,22,00,53,5.10
2011,04,22,00,54,5.10
2011,04,22,00,55,5.00
2011,04,22,00,56,4.90
2011,04,22,00,57,4.90
2011,04,22,00,58,4.80
2011,04,22,00,59,4.70
2011,04,22,01,00,4.70
2011,04,22,01,01,4.60
2011,04,22,01,02,4.60
2011,04,22,01,03,4.50
2011,04,22,01,04,4.40
2011,04,22,01,05,4.40
2011,04,22,01,06,4.40
2011,04,22,01,07,4.40
2011,04,22,01,08,4.40
2011,04,22,01,09,4.40
2011,04,22,01,10,4.40
2011,04,22,01,11,4.40
2011,04,22,01,12,4.40
2011,04,22,01,13,4.40
2011,04,22,01,14,4.40
2011,04,22,01,15,4.40
2011,04,22,01,16,4.40
2011,04,22,01,17,4.50
2011,04,22,01,18,4.50
2011,04,22,01,19,4.50
2011,04,22,01,20,4.60
2011,04,22,01,21,4.60
2011,04,22,01,22,4.60
2011,04,22,01,23,4.60
2011,04,22,01,24,4.60
2011,04,22,01,25,4.60
2011,04,22,01,26,4.60
2011,04,22,01,27,4.50
2011,04,22,01,28,4.50
2011,04,22,01,29,4.40
2011,04,22,01,30,4.30
2011,04,22,01,31,4.20
2011,04,22,01,32,4.10
2011,04,22,01,33,4.00
2011,04,22,01,34,3.90
2011,04,22,01,35,3.80
2011,04,22,01,36,3.80
2011,04,22,01,37,3.70
2011,04,22,01,38,3.60
2011,04,22,01,39,3.60
2011,04,22,01,40,3.50
2011,04,22,01,41,3.50
2011,04,22,01,42,3.40
2011,04,22,01,43,3.40
2011,04,22,01,44,3.40
2011,04,22,01,45,3.40
2011,04,22,01,46,3.40
2011,04,22,01,47,3.30
2011,04,22,01,48,3.30
2011,04,22,01,49,3.30
2011,04,22,01,50,3.30
2011,04,22,01,51,3.30
2011,04,22,01,52,3.40
2011,04,22,01,53,3.50
2011,04,22,01,54,3.50
2011,04,22,01,55,3.60
2011,04,22,01,56,3.60
2011,04,22,01,57,3.70
2011,04,22,01,58,3.70
2011,04,22,01,59,3.70
2011,04,22,02,00,3.70
2011,04,22,02,01,3.70
2011,04,22,02,02,3.70
2011,04,22,02,03,3.70
2011,04,22,02,04,3.70
2011,04,22,02,05,3.70
2011,04,22,02,06,3.70
2011,04,22,02,07,3.70
2011,04,22,02,08,3.70
2011,04,22,02,09,3.70
2011,04,22,02,10,3.70
2011,04,22,02,11,3.70
2011,04,22,02,12,3.70
2011,04,22,02,13,3.70
2011,04,22,02,14,3.70
2011,04,22,02,15,3.70
2011,04,22,02,16,3.80
2011,04,22,02,17,3.80
2011,04,22,02,18,3.70
2011,04,22,02,19,3.70
2011,04,22,02,20,3.70
2011,04,22,02,21,3.70
2011,04,22,02,22,3.70
2011,04,22,02,23,3.60
2011,04,22,02,24,3.50
2011,04,22,02,25,3.40
2011,04,22,02,26,3.40
2011,04,22,02,27,3.30
2011,04,22,02,28,3.20
2011,04,22,02,29,3.20
2011,04,22,02,30,3.20
2011,04,22,02,31,3.10
2011,04,22,02,32,3.10
2011,04,22,02,33,3.00
2011,04,22,02,34,3.00
2011,04,22,02,35,2.90
2011,04,22,02,36,2.90
2011,04,22,02,37,2.90
2011,04,22,02,38,2.80
2011,04,22,02,39,2.80
2011,04,22,02,40,2.80
2011,04,22,02,41,2.80
2011,04,22,02,42,2.80
2011,04,22,02,43,2.70
2011,04,22,02,44,2.70
2011,04,22,02,45,2.70
2011,04,22,02,46,2.70
2011,04,22,02,47,2.70
2011,04,22,02,48,2.70
2011,04,22,02,49,2.70
2011,04,22,02,50,2.60
2011,04,22,02,51,2.60
2011,04,22,02,52,2.60
2011,04,22,02,53,2.60
2011,04,22,02,54,2.60
2011,04,22,02,55,2.60
2011,04,22,02,56,2.60
2011,04,22,02,57,2.60
2011,04,22,02,58,2.60
2011,04,22,02,59,2.60
2011,04,22,03,00,2.60
2011,04,22,03,01,2.60
2011,04,22,03,02,2.60
2011,04,22,03,03,2.60
2011,04,22,03,04,2.70
2011,04,22,03,05,2.70
2011,04,22,03,06,2.80
2011,04,22,03,07,2.90
2011,04,22,03,08,3.00
2011,04,22,03,09,3.20
2011,04,22,03,10,3.30
2011,04,22,03,11,3.40
2011,04,22,03,12,3.30
2011,04,22,03,13,3.30
2011,04,22,03,14,3.20
2011,04,22,03,15,3.10
2011,04,22,03,16,3.10
2011,04,22,03,17,3.00
2011,04,22,03,18,3.00
2011,04,22,03,19,2.90
2011,04,22,03,20,2.90
2011,04,22,03,21,2.80
2011,04,22,03,22,2.80
2011,04,22,03,23,2.70
2011,04,22,03,24,2.70
2011,04,22,03,25,2.70
2011,04,22,03,26,2.70
2011,04,22,03,27,2.70
2011,04,22,03,28,2.70
2011,04,22,03,29,2.70
2011,04,22,03,30,2.50
2011,04,22,03,31,2.40
2011,04,22,03,32,2.40
2011,04,22,03,33,2.40
2011,04,22,03,34,2.40
2011,04,22,03,35,2.40
2011,04,22,03,36,2.40
2011,04,22,03,37,2.40
2011,04,22,03,38,2.40
2011,04,22,03,39,2.40
2011,04,22,03,40,2.50
2011,04,22,03,41,2.50
2011,04,22,03,42,2.60
2011,04,22,03,43,2.60
2011,04,22,03,44,2.60
2011,04,22,03,45,2.60
2011,04,22,03,46,2.60
2011,04,22,03,47,2.60
2011,04,22,03,48,2.60
2011,04,22,03,49,2.60
2011,04,22,03,50,2.60
2011,04,22,03,51,2.60
2011,04,22,03,52,2.60
2011,04,22,03,53,2.60
2011,04,22,03,54,2.60
2011,04,22,03,55,2.50
2011,04,22,03,56,2.50
2011,04,22,03,57,2.50
2011,04,22,03,58,2.50
2011,04,22,03,59,2.50
2011,04,22,04,00,2.50
2011,04,22,04,01,2.50
2011,04,22,04,02,2.50
2011,04,22,04,03,2.50
2011,04,22,04,04,2.50
2011,04,22,04,05,2.50
2011,04,22,04,06,2.50
2011,04,22,04,07,2.50
2011,04,22,04,08,2.50
2011,04,22,04,09,2.50
2011,04,22,04,10,2.50
2011,04,22,04,11,2.50
2011,04,22,04,12,2.50
2011,04,22,04,13,2.50
2011,04,22,04,14,2.50
2011,04,22,04,15,2.50
2011,04,22,04,16,2.50
2011,04,22,04,17,2.50
2011,04,22,04,18,2.50
2011,04,22,04,19,2.50
2011,04,22,04,20,2.50
2011,04,22,04,21,2.50
2011,04,22,04,22,2.50
2011,04,22,04,23,2.50
2011,04,22,04,24,2.50
2011,04,22,04,25,2.40
2011,04,22,04,26,2.50
2011,04,22,04,27,2.40
2011,04,22,04,28,2.40
2011,04,22,04,29,2.40
2011,04,22,04,30,2.40
2011,04,22,04,31,2.40
2011,04,22,04,32,2.40
2011,04,22,04,33,2.40
2011,04,22,04,34,2.40
2011,04,22,04,35,2.40
2011,04,22,04,36,2.40
2011,04,22,04,37,2.30
2011,04,22,04,38,2.30
2011,04,22,04,39,2.30
2011,04,22,04,40,2.30
2011,04,22,04,41,2.30
2011,04,22,04,42,2.20
2011,04,22,04,43,2.20
2011,04,22,04,44,2.20
2011,04,22,04,45,2.20
2011,04,22,04,46,2.10
2011,04,22,04,47,2.10
2011,04,22,04,48,2.10
2011,04,22,04,49,2.10
2011,04,22,04,50,2.10
2011,04,22,04,51,2.00
2011,04,22,04,52,2.00
2011,04,22,04,53,2.00
2011,04,22,04,54,2.00
2011,04,22,04,55,2.00
2011,04,22,04,56,1.90
2011,04,22,04,57,1.90
2011,04,22,04,58,1.90
2011,04,22,04,59,1.90
2011,04,22,05,00,1.90
2011,04,22,05,01,1.90
2011,04,22,05,02,1.90
2011,04,22,05,03,1.90
2011,04,22,05,04,1.90
2011,04,22,05,05,1.90
2011,04,22,05,06,1.90
2011,04,22,05,07,1.80
2011,04,22,05,08,1.80
2011,04,22,05,09,1.80
2011,04,22,05,10,1.80
2011,04,22,05,11,1.80
2011,04,22,05,12,1.70
2011,04,22,05,13,1.70
2011,04,22,05,14,1.70
2011,04,22,05,15,1.70
2011,04,22,05,16,1.70
2011,04,22,05,17,1.70
2011,04,22,05,18,1.70
2011,04,22,05,19,1.70
2011,04,22,05,20,1.70
2011,04,22,05,21,1.70
2011,04,22,05,22,1.70
2011,04,22,05,23,1.70
2011,04,22,05,24,1.70
2011,04,22,05,25,1.70
2011,04,22,05,26,1.70
2011,04,22,05,27,1.70
2011,04,22,05,28,1.70
2011,04,22,05,29,1.70
2011,04,22,05,30,1.70
2011,04,22,05,31,1.70
2011,04,22,05,32,1.70
2011,04,22,05,33,1.70
2011,04,22,05,34,1.70
2011,04,22,05,35,1.70
2011,04,22,05,36,1.60
2011,04,22,05,37,1.60
2011,04,22,05,38,1.60
2011,04,22,05,39,1.60
2011,04,22,05,40,1.60
2011,04,22,05,41,1.50
2011,04,22,05,42,1.50
2011,04,22,05,43,1.40
2011,04,22,05,44,1.40
2011,04,22,05,45,1.40
2011,04,22,05,46,1.30
2011,04,22,05,47,1.30
2011,04,22,05,48,1.30
2011,04,22,05,49,1.30
2011,04,22,05,50,1.30
2011,04,22,05,51,1.30
2011,04,22,05,52,1.30
2011,04,22,05,53,1.30
2011,04,22,05,54,1.30
2011,04,22,05,55,1.30
2011,04,22,05,56,1.30
2011,04,22,05,57,1.30
2011,04,22,05,58,1.30
2011,04,22,05,59,1.30
2011,04,22,06,00,1.30
2011,04,22,06,01,1.30
2011,04,22,06,02,1.30
2011,04,22,06,03,1.30
2011,04,22,06,04,1.30
2011,04,22,06,05,1.30
2011,04,22,06,06,1.30
2011,04,22,06,07,1.30
2011,04,22,06,08,1.20
2011,04,22,06,09,1.20
2011,04,22,06,10,1.20
2011,04,22,06,11,1.20
2011,04,22,06,12,1.20
2011,04,22,06,13,1.10
2011,04,22,06,14,1.10
2011,04,22,06,15,1.10
2011,04,22,06,16,1.10
2011,04,22,06,17,1.10
2011,04,22,06,18,1.10
2011,04,22,06,19,1.10
2011,04,22,06,20,1.00
2011,04,22,06,21,1.00
2011,04,22,06,22,1.00
2011,04,22,06,23,1.00
2011,04,22,06,24,0.90
2011,04,22,06,25,0.90
2011,04,22,06,26,0.90
2011,04,22,06,27,0.90
2011,04,22,06,28,0.90
2011,04,22,06,29,0.90
2011,04,22,06,30,0.90
2011,04,22,06,31,0.90
2011,04,22,06,32,0.90
2011,04,22,06,33,0.90
2011,04,22,06,34,0.90
2011,04,22,06,35,0.90
2011,04,22,06,36,0.90
2011,04,22,06,37,0.90
2011,04,22,06,38,0.90
2011,04,22,06,39,0.90
2011,04,22,06,40,1.00
2011,04,22,06,41,1.00
2011,04,22,06,42,1.00
2011,04,22,06,43,1.10
2011,04,22,06,44,1.10
2011,04,22,06,45,1.10
2011,04,22,06,46,1.10
2011,04,22,06,47,1.10
2011,04,22,06,48,1.10
2011,04,22,06,49,1.10
2011,04,22,06,50,1.10
2011,04,22,06,51,1.10
2011,04,22,06,52,1.10
2011,04,22,06,53,1.10
2011,04,22,06,54,1.10
2011,04,22,06,55,1.20
2011,04,22,06,56,1.20
2011,04,22,06,57,1.20
2011,04,22,06,58,1.20
2011,04,22,06,59,1.20
2011,04,22,07,00,1.30
2011,04,22,07,01,1.30
2011,04,22,07,02,1.30
2011,04,22,07,03,1.30
2011,04,22,07,04,1.30
2011,04,22,07,05,1.30
2011,04,22,07,06,1.30
2011,04,22,07,07,1.30
2011,04,22,07,08,1.30
2011,04,22,07,09,1.30
2011,04,22,07,10,1.30
2011,04,22,07,11,1.30
2011,04,22,07,12,1.30
2011,04,22,07,13,1.30
2011,04,22,07,14,1.30
2011,04,22,07,15,1.30
2011,04,22,07,16,1.40
2011,04,22,07,17,1.50
2011,04,22,07,18,1.50
2011,04,22,07,19,1.60
2011,04,22,07,20,1.60
2011,04,22,07,21,1.60
2011,04,22,07,22,1.70
2011,04,22,07,23,1.70
2011,04,22,07,24,1.80
2011,04,22,07,25,1.80
2011,04,22,07,26,1.80
2011,04,22,07,27,1.90
2011,04,22,07,28,1.90
2011,04,22,07,29,2.00
2011,04,22,07,30,2.10
2011,04,22,07,31,2.20
2011,04,22,07,32,2.30
2011,04,22,07,33,2.30
2011,04,22,07,34,2.40
2011,04,22,07,35,2.50
2011,04,22,07,36,2.50
2011,04,22,07,37,2.60
2011,04,22,07,38,2.60
2011,04,22,07,39,2.70
2011,04,22,07,40,2.80
2011,04,22,07,41,2.80
2011,04,22,07,42,2.90
2011,04,22,07,43,2.90
2011,04,22,07,44,3.00
2011,04,22,07,45,3.00
2011,04,22,07,46,3.10
2011,04,22,07,47,3.10
2011,04,22,07,48,3.10
2011,04,22,07,49,3.20
2011,04,22,07,50,3.20
2011,04,22,07,51,3.30
2011,04,22,07,52,3.30
2011,04,22,07,53,3.40
2011,04,22,07,54,3.50
2011,04,22,07,55,3.50
2011,04,22,07,56,3.50
2011,04,22,07,57,3.60
2011,04,22,07,58,3.60
2011,04,22,07,59,3.70
2011,04,22,08,00,3.70
2011,04,22,08,01,3.80
2011,04,22,08,02,3.80
2011,04,22,08,03,3.90
2011,04,22,08,04,4.00
2011,04,22,08,05,4.00
2011,04,22,08,06,4.10
2011,04,22,08,07,4.10
2011,04,22,08,08,4.10
2011,04,22,08,09,4.20
2011,04,22,08,10,4.20
2011,04,22,08,11,4.30
2011,04,22,08,12,4.30
2011,04,22,08,13,4.30
2011,04,22,08,14,4.40
2011,04,22,08,15,4.40
2011,04,22,08,16,4.40
2011,04,22,08,17,4.50
2011,04,22,08,18,4.50
2011,04,22,08,19,4.50
2011,04,22,08,20,4.60
2011,04,22,08,21,4.60
2011,04,22,08,22,4.70
2011,04,22,08,23,4.80
2011,04,22,08,24,4.80
2011,04,22,08,25,4.90
2011,04,22,08,26,4.90
2011,04,22,08,27,5.00
2011,04,22,08,28,5.10
2011,04,22,08,29,5.20
2011,04,22,08,30,5.20
2011,04,22,08,31,5.30
2011,04,22,08,32,5.40
2011,04,22,08,33,5.40
2011,04,22,08,34,5.50
2011,04,22,08,35,5.50
2011,04,22,08,36,5.50
2011,04,22,08,37,5.60
2011,04,22,08,38,5.60
2011,04,22,08,39,5.60
2011,04,22,08,40,5.60
2011,04,22,08,41,5.70
2011,04,22,08,42,5.70
2011,04,22,08,43,5.70
2011,04,22,08,44,5.70
2011,04,22,08,45,5.70
2011,04,22,08,46,5.70
2011,04,22,08,47,5.70
2011,04,22,08,48,5.80
2011,04,22,08,49,5.80
2011,04,22,08,50,5.80
2011,04,22,08,51,5.90
2011,04,22,08,52,5.90
2011,04,22,08,53,5.90
2011,04,22,08,54,6.00
2011,04,22,08,55,6.10
2011,04,22,08,56,6.10
2011,04,22,08,57,6.20
2011,04,22,08,58,6.20
2011,04,22,08,59,6.30
2011,04,22,09,00,6.40
2011,04,22,09,01,6.40
2011,04,22,09,02,6.50
2011,04,22,09,03,6.60
2011,04,22,09,04,6.70
2011,04,22,09,05,6.70
2011,04,22,09,06,6.80
2011,04,22,09,07,6.80
2011,04,22,09,08,6.90
2011,04,22,09,09,7.00
2011,04,22,09,10,7.00
2011,04,22,09,11,7.10
2011,04,22,09,12,7.10
2011,04,22,09,13,7.20
2011,04,22,09,14,7.20
2011,04,22,09,15,7.30
2011,04,22,09,16,7.40
2011,04,22,09,17,7.40
2011,04,22,09,18,7.50
2011,04,22,09,19,7.60
2011,04,22,09,20,7.70
2011,04,22,09,21,7.80
2011,04,22,09,22,7.80
2011,04,22,09,23,7.90
2011,04,22,09,24,8.00
2011,04,22,09,25,8.00
2011,04,22,09,26,8.10
2011,04,22,09,27,8.10
2011,04,22,09,28,8.10
2011,04,22,09,29,8.20
2011,04,22,09,30,8.20
2011,04,22,09,31,8.20
2011,04,22,09,32,8.20
2011,04,22,09,33,8.30
2011,04,22,09,34,8.30
2011,04,22,09,35,8.30
2011,04,22,09,36,8.30
2011,04,22,09,37,8.30
2011,04,22,09,38,8.30
2011,04,22,09,39,8.40
2011,04,22,09,40,8.40
2011,04,22,09,41,8.40
2011,04,22,09,42,8.50
2011,04,22,09,43,8.50
2011,04,22,09,44,8.50
2011,04,22,09,45,8.60
2011,04,22,09,46,8.60
2011,04,22,09,47,8.60
2011,04,22,09,48,8.70
2011,04,22,09,49,8.70
2011,04,22,09,50,8.70
2011,04,22,09,51,8.70
2011,04,22,09,52,8.70
2011,04,22,09,53,8.70
2011,04,22,09,54,8.70
2011,04,22,09,55,8.70
2011,04,22,09,56,8.70
2011,04,22,09,57,8.70
2011,04,22,09,58,8.70
2011,04,22,09,59,8.70
2011,04,22,10,00,8.70
2011,04,22,10,01,8.80
2011,04,22,10,02,8.80
2011,04,22,10,03,8.80
2011,04,22,10,04,8.90
2011,04,22,10,05,8.90
2011,04,22,10,06,8.90
2011,04,22,10,07,8.90
2011,04,22,10,08,8.90
2011,04,22,10,09,8.90
2011,04,22,10,10,8.90
2011,04,22,10,11,8.90
2011,04,22,10,12,8.90
2011,04,22,10,13,9.00
2011,04,22,10,14,9.00
2011,04,22,10,15,9.10
2011,04,22,10,16,9.20
2011,04,22,10,17,9.20
2011,04,22,10,18,9.20
2011,04,22,10,19,9.20
2011,04,22,10,20,9.30
2011,04,22,10,21,9.30
2011,04,22,10,22,9.30
2011,04,22,10,23,9.20
2011,04,22,10,24,9.20
2011,04,22,10,25,9.20
2011,04,22,10,26,9.10
2011,04,22,10,27,9.10
2011,04,22,10,28,9.10
2011,04,22,10,29,9.20
2011,04,22,10,30,9.20
2011,04,22,10,31,9.20
2011,04,22,10,32,9.20
2011,04,22,10,33,9.20
2011,04,22,10,34,9.20
2011,04,22,10,35,9.30
2011,04,22,10,36,9.30
2011,04,22,10,37,9.30
2011,04,22,10,38,9.30
2011,04,22,10,39,9.40
2011,04,22,10,40,9.40
2011,04,22,10,41,9.50
2011,04,22,10,42,9.60
2011,04,22,10,43,9.60
2011,04,22,10,44,9.60
2011,04,22,10,45,9.70
2011,04,22,10,46,9.70
2011,04,22,10,47,9.70
2011,04,22,10,48,9.60
2011,04,22,10,49,9.60
2011,04,22,10,50,9.60
2011,04,22,10,51,9.60
2011,04,22,10,52,9.60
2011,04,22,10,53,9.60
2011,04,22,10,54,9.60
2011,04,22,10,55,9.70
2011,04,22,10,56,9.70
2011,04,22,10,57,9.70
2011,04,22,10,58,9.70
2011,04,22,10,59,9.60
2011,04,22,11,00,9.60
2011,04,22,11,01,9.60
2011,04,22,11,02,9.60
2011,04,22,11,03,9.60
2011,04,22,11,04,9.60
2011,04,22,11,05,9.70
2011,04,22,11,06,9.70
2011,04,22,11,07,9.70
2011,04,22,11,08,9.70
2011,04,22,11,09,9.70
2011,04,22,11,10,9.60
2011,04,22,11,11,9.60
2011,04,22,11,12,9.60
2011,04,22,11,13,9.60
2011,04,22,11,14,9.60
2011,04,22,11,15,9.60
2011,04,22,11,16,9.70
2011,04,22,11,17,9.70
2011,04,22,11,18,9.70
2011,04,22,11,19,9.70
2011,04,22,11,20,9.70
2011,04,22,11,21,9.70
2011,04,22,11,22,9.70
2011,04,22,11,23,9.70
2011,04,22,11,24,9.70
2011,04,22,11,25,9.80
2011,04,22,11,26,9.80
2011,04,22,11,27,9.80
2011,04,22,11,28,9.90
2011,04,22,11,29,9.90
2011,04,22,11,30,9.90
2011,04,22,11,31,10.00
2011,04,22,11,32,10.00
2011,04,22,11,33,10.10
2011,04,22,11,34,10.00
2011,04,22,11,35,9.90
2011,04,22,11,36,9.90
2011,04,22,11,37,9.80
2011,04,22,11,38,9.80
2011,04,22,11,39,9.90
2011,04,22,11,40,9.80
2011,04,22,11,41,9.80
2011,04,22,11,42,9.80
2011,04,22,11,43,9.80
2011,04,22,11,44,9.80
2011,04,22,11,45,9.80
2011,04,22,11,46,9.80
2011,04,22,11,47,9.80
2011,04,22,11,48,9.70
2011,04,22,11,49,9.80
2011,04,22,11,50,9.80
2011,04,22,11,51,9.90
2011,04,22,11,52,10.00
2011,04,22,11,53,10.00
2011,04,22,11,54,10.00
2011,04,22,11,55,10.00
2011,04,22,11,56,10.10
2011,04,22,11,57,10.10
2011,04,22,11,58,10.20
2011,04,22,11,59,10.30
2011,04,22,12,00,10.30
2011,04,22,12,01,10.30
2011,04,22,12,02,10.30
2011,04,22,12,03,10.30
2011,04,22,12,04,10.30
2011,04,22,12,05,10.40
2011,04,22,12,06,10.40
2011,04,22,12,07,10.40
2011,04,22,12,08,10.40
2011,04,22,12,09,10.40
2011,04,22,12,10,10.40
2011,04,22,12,11,10.50
2011,04,22,12,12,10.50
2011,04,22,12,13,10.40
2011,04,22,12,14,10.40
2011,04,22,12,15,10.40
2011,04,22,12,16,10.40
2011,04,22,12,17,10.40
2011,04,22,12,18,10.30
2011,04,22,12,19,10.30
2011,04,22,12,20,10.30
2011,04,22,12,21,10.30
2011,04,22,12,22,10.30
2011,04,22,12,23,10.40
2011,04,22,12,24,10.50
2011,04,22,12,25,10.50
2011,04,22,12,26,10.60
2011,04,22,12,27,10.70
2011,04,22,12,28,10.70
2011,04,22,12,29,10.70
2011,04,22,12,30,10.60
2011,04,22,12,31,10.60
2011,04,22,12,32,10.60
2011,04,22,12,33,10.70
2011,04,22,12,34,10.80
2011,04,22,12,35,10.80
2011,04,22,12,36,10.80
2011,04,22,12,37,10.80
2011,04,22,12,38,10.80
2011,04,22,12,39,10.80
2011,04,22,12,40,10.80
2011,04,22,12,41,10.70
2011,04,22,12,42,10.70
2011,04,22,12,43,10.70
2011,04,22,12,44,10.70
2011,04,22,12,45,10.80
2011,04,22,12,46,10.80
2011,04,22,12,47,10.80
2011,04,22,12,48,10.80
2011,04,22,12,49,10.90
2011,04,22,12,50,10.80
2011,04,22,12,51,10.80
2011,04,22,12,52,10.80
2011,04,22,12,53,10.80
2011,04,22,12,54,10.80
2011,04,22,12,55,10.80
2011,04,22,12,56,10.80
2011,04,22,12,57,10.90
2011,04,22,12,58,11.00
2011,04,22,12,59,11.10
2011,04,22,13,00,11.20
2011,04,22,13,01,11.30
2011,04,22,13,02,11.30
2011,04,22,13,03,11.40
2011,04,22,13,04,11.40
2011,04,22,13,05,11.40
2011,04,22,13,06,11.50
2011,04,22,13,07,11.50
2011,04,22,13,08,11.50
2011,04,22,13,09,11.60
2011,04,22,13,10,11.60
2011,04,22,13,11,11.60
2011,04,22,13,12,11.60
2011,04,22,13,13,11.60
2011,04,22,13,14,11.50
2011,04,22,13,15,11.50
2011,04,22,13,16,11.50
2011,04,22,13,17,11.40
2011,04,22,13,18,11.30
2011,04,22,13,19,11.20
2011,04,22,13,20,11.20
2011,04,22,13,21,11.30
2011,04,22,13,22,11.30
2011,04,22,13,23,11.40
2011,04,22,13,24,11.40
2011,04,22,13,25,11.50
2011,04,22,13,26,11.60
2011,04,22,13,27,11.60
2011,04,22,13,28,11.60
2011,04,22,13,29,11.80
2011,04,22,13,30,11.90
2011,04,22,13,31,12.00
2011,04,22,13,32,12.10
2011,04,22,13,33,12.00
2011,04,22,13,34,11.90
2011,04,22,13,35,11.80
2011,04,22,13,36,11.80
2011,04,22,13,37,11.70
2011,04,22,13,38,11.70
2011,04,22,13,39,11.80
2011,04,22,13,40,11.80
2011,04,22,13,41,11.80
2011,04,22,13,42,11.80
2011,04,22,13,43,11.80
2011,04,22,13,44,11.70
2011,04,22,13,45,11.60
2011,04,22,13,46,11.60
2011,04,22,13,47,11.60
2011,04,22,13,48,11.60
2011,04,22,13,49,11.60
2011,04,22,13,50,11.50
2011,04,22,13,51,11.50
2011,04,22,13,52,11.50
2011,04,22,13,53,11.60
2011,04,22,13,54,11.70
2011,04,22,13,55,11.80
2011,04,22,13,56,11.90
2011,04,22,13,57,11.90
2011,04,22,13,58,12.00
2011,04,22,13,59,12.00
2011,04,22,14,00,12.10
2011,04,22,14,01,12.10
2011,04,22,14,02,12.10
2011,04,22,14,03,12.10
2011,04,22,14,04,12.10
2011,04,22,14,05,12.10
2011,04,22,14,06,12.00
2011,04,22,14,07,12.00
2011,04,22,14,08,12.00
2011,04,22,14,09,12.00
2011,04,22,14,10,12.00
2011,04,22,14,11,12.00
2011,04,22,14,12,12.00
2011,04,22,14,13,12.00
2011,04,22,14,14,12.00
2011,04,22,14,15,12.10
2011,04,22,14,16,12.10
2011,04,22,14,17,12.10
2011,04,22,14,18,12.20
2011,04,22,14,19,12.20
2011,04,22,14,20,12.20
2011,04,22,14,21,12.20
2011,04,22,14,22,12.20
2011,04,22,14,23,12.20
2011,04,22,14,24,12.20
2011,04,22,14,25,12.10
2011,04,22,14,26,12.00
2011,04,22,14,27,12.00
2011,04,22,14,28,12.00
2011,04,22,14,29,12.10
2011,04,22,14,30,12.30
2011,04,22,14,31,12.40
2011,04,22,14,32,12.40
2011,04,22,14,33,12.40
2011,04,22,14,34,12.40
2011,04,22,14,35,12.40
2011,04,22,14,36,12.40
2011,04,22,14,37,12.40
2011,04,22,14,38,12.30
2011,04,22,14,39,12.30
2011,04,22,14,40,12.30
2011,04,22,14,41,12.30
2011,04,22,14,42,12.40
2011,04,22,14,43,12.40
2011,04,22,14,44,12.40
2011,04,22,14,45,12.50
2011,04,22,14,46,12.50
2011,04,22,14,47,12.50
2011,04,22,14,48,12.60
2011,04,22,14,49,12.50
2011,04,22,14,50,12.40
2011,04,22,14,51,12.30
2011,04,22,14,52,12.20
2011,04,22,14,53,12.00
2011,04,22,14,54,12.00
2011,04,22,14,55,12.00
2011,04,22,14,56,12.10
2011,04,22,14,57,12.20
2011,04,22,14,58,12.30
2011,04,22,14,59,12.40
2011,04,22,15,00,12.50
2011,04,22,15,01,12.50
2011,04,22,15,02,12.50
2011,04,22,15,03,12.50
2011,04,22,15,04,12.60
2011,04,22,15,05,12.60
2011,04,22,15,06,12.60
2011,04,22,15,07,12.50
2011,04,22,15,08,12.40
2011,04,22,15,09,12.30
2011,04,22,15,10,12.20
2011,04,22,15,11,12.20
2011,04,22,15,12,12.10
2011,04,22,15,13,12.10
2011,04,22,15,14,12.10
2011,04,22,15,15,12.10
2011,04,22,15,16,12.10
2011,04,22,15,17,12.10
2011,04,22,15,18,12.10
2011,04,22,15,19,12.10
2011,04,22,15,20,12.20
2011,04,22,15,21,12.20
2011,04,22,15,22,12.20
2011,04,22,15,23,12.20
2011,04,22,15,24,12.10
2011,04,22,15,25,12.10
2011,04,22,15,26,12.10
2011,04,22,15,27,12.10
2011,04,22,15,28,12.20
2011,04,22,15,29,12.20
2011,04,22,15,30,12.20
2011,04,22,15,31,12.30
2011,04,22,15,32,12.30
2011,04,22,15,33,12.30
2011,04,22,15,34,12.30
2011,04,22,15,35,12.30
2011,04,22,15,36,12.20
2011,04,22,15,37,12.20
2011,04,22,15,38,12.10
2011,04,22,15,39,12.10
2011,04,22,15,40,12.10
2011,04,22,15,41,12.20
2011,04,22,15,42,12.20
2011,04,22,15,43,12.20
2011,04,22,15,44,12.30
2011,04,22,15,45,12.30
2011,04,22,15,46,12.40
2011,04,22,15,47,12.40
2011,04,22,15,48,12.40
2011,04,22,15,49,12.50
2011,04,22,15,50,12.50
2011,04,22,15,51,12.50
2011,04,22,15,52,12.50
2011,04,22,15,53,12.40
2011,04,22,15,54,12.50
2011,04,22,15,55,12.50
2011,04,22,15,56,12.60
2011,04,22,15,57,12.70
2011,04,22,15,58,12.80
2011,04,22,15,59,12.80
2011,04,22,16,00,12.80
2011,04,22,16,01,12.80
2011,04,22,16,02,12.90
2011,04,22,16,03,12.90
2011,04,22,16,04,12.80
2011,04,22,16,05,12.70
2011,04,22,16,06,12.70
2011,04,22,16,07,12.70
2011,04,22,16,08,12.70
2011,04,22,16,09,12.80
2011,04,22,16,10,12.80
2011,04,22,16,11,12.80
2011,04,22,16,12,12.80
2011,04,22,16,13,12.80
2011,04,22,16,14,12.70
2011,04,22,16,15,12.70
2011,04,22,16,16,12.60
2011,04,22,16,17,12.70
2011,04,22,16,18,12.60
2011,04,22,16,19,12.50
2011,04,22,16,20,12.40
2011,04,22,16,21,12.30
2011,04,22,16,22,12.20
2011,04,22,16,23,12.10
2011,04,22,16,24,12.10
2011,04,22,16,25,12.00
2011,04,22,16,26,12.00
2011,04,22,16,27,12.10
2011,04,22,16,28,12.10
2011,04,22,16,29,12.10
2011,04,22,16,30,12.10
2011,04,22,16,31,12.20
2011,04,22,16,32,12.20
2011,04,22,16,33,12.30
2011,04,22,16,34,12.30
2011,04,22,16,35,12.30
2011,04,22,16,36,12.30
2011,04,22,16,37,12.30
2011,04,22,16,38,12.30
2011,04,22,16,39,12.30
2011,04,22,16,40,12.30
2011,04,22,16,41,12.30
2011,04,22,16,42,12.30
2011,04,22,16,43,12.30
2011,04,22,16,44,12.30
2011,04,22,16,45,12.30
2011,04,22,16,46,12.30
2011,04,22,16,47,12.30
2011,04,22,16,48,12.30
2011,04,22,16,49,12.40
2011,04,22,16,50,12.40
2011,04,22,16,51,12.50
2011,04,22,16,52,12.50
2011,04,22,16,53,12.50
2011,04,22,16,54,12.50
2011,04,22,16,55,12.50
2011,04,22,16,56,12.50
2011,04,22,16,57,12.60
2011,04,22,16,58,12.60
2011,04,22,16,59,12.60
2011,04,22,17,00,12.60
2011,04,22,17,01,12.60
2011,04,22,17,02,12.60
2011,04,22,17,03,12.50
2011,04,22,17,04,12.50
2011,04,22,17,05,12.50
2011,04,22,17,06,12.50
2011,04,22,17,07,12.50
2011,04,22,17,08,12.50
2011,04,22,17,09,12.50
2011,04,22,17,10,12.60
2011,04,22,17,11,12.60
2011,04,22,17,12,12.60
2011,04,22,17,13,12.70
2011,04,22,17,14,12.70
2011,04,22,17,15,12.70
2011,04,22,17,16,12.70
2011,04,22,17,17,12.70
2011,04,22,17,18,12.70
2011,04,22,17,19,12.70
2011,04,22,17,20,12.70
2011,04,22,17,21,12.70
2011,04,22,17,22,12.70
2011,04,22,17,23,12.60
2011,04,22,17,24,12.60
2011,04,22,17,25,12.50
2011,04,22,17,26,12.50
2011,04,22,17,27,12.40
2011,04,22,17,28,12.30
2011,04,22,17,29,12.30
2011,04,22,17,30,12.30
2011,04,22,17,31,12.30
2011,04,22,17,32,12.40
2011,04,22,17,33,12.40
2011,04,22,17,34,12.40
2011,04,22,17,35,12.50
2011,04,22,17,36,12.50
2011,04,22,17,37,12.50
2011,04,22,17,38,12.50
2011,04,22,17,39,12.60
2011,04,22,17,40,12.60
2011,04,22,17,41,12.60
2011,04,22,17,42,12.70
2011,04,22,17,43,12.70
2011,04,22,17,44,12.60
2011,04,22,17,45,12.70
2011,04,22,17,46,12.70
2011,04,22,17,47,12.70
2011,04,22,17,48,12.60
2011,04,22,17,49,12.50
2011,04,22,17,50,12.40